This is the latest recevied weather packets stored in our database for station/object KF0JJO. If no packets are shown the sender has not sent any weather packets the latest 1 day(s).
| Time | Temp. | Humidity | Pressure | Rain* | Wind** | Luminosity | Snow |
|---|---|---|---|---|---|---|---|
| 1778032198 | 7.78° C | 41% | 1043.1 hPa | 0 mm | 0 m/s | 0 W/m² | - |
| 1778031895 | 7.78° C | 40% | 1043.2 hPa | 0 mm | 0 m/s | 0 W/m² | - |
| 1778031591 | 7.78° C | 40% | 1042.9 hPa | 0 mm | 0 m/s | 0 W/m² | - |
| 1778031289 | 7.78° C | 41% | 1042.8 hPa | 0 mm | 0 m/s | 1 W/m² | - |
| 1778030985 | 7.78° C | 40% | 1042.9 hPa | 0 mm | 0 m/s | 1 W/m² | - |
| 1778030681 | 7.78° C | 41% | 1042.9 hPa | 0 mm | 0.45 m/s, 96° | 2 W/m² | - |
| 1778030378 | 8.33° C | 40% | 1042.7 hPa | 0 mm | 0.45 m/s, 27° | 4 W/m² | - |
| 1778030076 | 8.33° C | 40% | 1042.7 hPa | 0 mm | 0 m/s | 5 W/m² | - |
| 1778029772 | 8.33° C | 38% | 1042.8 hPa | 0 mm | 0 m/s | 6 W/m² | - |
| 1778029472 | 8.33° C | 38% | 1042.6 hPa | 0 mm | 0.45 m/s, 235° | 8 W/m² | - |
| 1778029167 | 8.89° C | 38% | 1042.5 hPa | 0 mm | 0.45 m/s, 19° | 11 W/m² | - |
| 1778028865 | 8.89° C | 38% | 1042.5 hPa | 0 mm | 0 m/s | 13 W/m² | - |
| 1778028560 | 8.89° C | 38% | 1042.3 hPa | 0 mm | 0 m/s | 17 W/m² | - |
| 1778028259 | 8.89° C | 37% | 1042.6 hPa | 0 mm | 0 m/s | 23 W/m² | - |
| 1778027954 | 9.44° C | 36% | 1042.3 hPa | 0 mm | 0 m/s | 28 W/m² | - |
| 1778027651 | 9.44° C | 37% | 1042.5 hPa | 0 mm | 0 m/s | 26 W/m² | - |
| 1778027348 | 9.44° C | 35% | 1042.4 hPa | 0 mm | 0.45 m/s, 17° | 34 W/m² | - |
| 1778027043 | 9.44° C | 36% | 1042.2 hPa | 0 mm | 0.45 m/s, 32° | 46 W/m² | - |
| 1778026739 | 10° C | 36% | 1042 hPa | 0 mm | 0 m/s | 47 W/m² | - |
| 1778026436 | 10° C | 35% | 1042.1 hPa | 0 mm | 0.45 m/s, 39° | 57 W/m² | - |
| 1778026134 | 10° C | 37% | 1042 hPa | 0 mm | 0 m/s | 65 W/m² | - |
| 1778025831 | 9.44° C | 37% | 1042 hPa | 0 mm | 0 m/s | 53 W/m² | - |
| 1778025527 | 9.44° C | 36% | 1042 hPa | 0 mm | 0 m/s | 34 W/m² | - |
| 1778025225 | 9.44° C | 35% | 1042 hPa | 0 mm | 0 m/s | 36 W/m² | - |
| 1778024922 | 9.44° C | 35% | 1041.8 hPa | 0 mm | 0 m/s | 41 W/m² | - |
* Rain latest hour (hover to see other rain measurements)
** Current wind speed in m/s (hover to see current wind gust speed)